Location: McFarlands Corners
(41.4117°N, 81.3382°W)
Time: 12:40:46
(UTC+00:00)

Courier 1B Rocket - Pass Details

Date: 20 February 2026
Orbit: 920 x 1201 km, 28.2° (Epoch: 10 March)

Event Time Altitude Azimuth Distance (km) Brightness Sun altitude
Rises 23:58:42 0° 227° (SW) 3,543 8.9 -10.9°
Reaches altitude 10° 00:02:01 10° 211° (SSW) 2,600 7.7 -11.5°
Maximum altitude 00:06:19 20° 167° (SSE) 2,012 6.6 -12.3°
Enters shadow 00:10:36 10° 123° (ESE) 2,627 6.8 -13.1°
Drops below altitude 10° 00:10:41 10° 122° (ESE) 2,648 - -13.1°
Sets 00:14:05 0° 106° (ESE) 3,631 - -13.8°
